Regional Weather Roundup
Issued by NWS Cleveland, OH

Home | Current Version | Previous Version | Graphics & Text | Print | Product List | Glossary On
Versions: 1 2 3 4 5 6 7 8 9 10 11 12 13 14 15 16 17 18 19 20 21 22 23 24 25 26 27 28 29 30 31 32 33 34 35 36 37 38 39 40 41 42 43 44 45 46 47 48 49 50
000
ASUS41 KCLE 031210
RWRCLE
OHIO REGIONAL WEATHER ROUNDUP
NATIONAL WEATHER SERVICE CLEVELAND, OH
800 AM EDT MON AUG 03 2015

NOTE: "FAIR" INDICATES FEW OR NO CLOUDS BELOW 12,000 FEET WITH NO
SIGNIFICANT WEATHER AND/OR OBSTRUCTIONS TO VISIBILITY.

OHZ001>008-015>018-024>027-034-035-043-044-031300-
   NORTHWEST OHIO

CITY           SKY/WX    TMP DP  RH WIND       PRES   REMARKS
DEFIANCE       PTSUNNY   64  61  90 SW5       29.81R
FINDLAY        CLOUDY    64  61  90 S9        29.80R
TOLEDO EXPRESS PTSUNNY   63  61  93 W5        29.80R
TOLEDO EXEC    CLOUDY    64  61  90 W7        29.80R
LIMA           CLOUDY    64  60  87 S9        29.82S
$$

OHZ009>014-019>023-028>033-038-089-031300-
   NORTHEAST OHIO

CITY           SKY/WX    TMP DP  RH WIND       PRES   REMARKS
CLE-HOPKINS    CLOUDY    64  60  87 S13       29.81R
CLE-LAKEFRONT  CLOUDY    67  59  75 S13       29.76R
CUY CO. ARPT   PTSUNNY   64  61  88 S9        29.78R
LORAIN-ELYRIA  CLOUDY    64  60  87 SW7       29.80R
ASHTABULA      CLOUDY    66  58  75 SW12G18   29.77R
AKRON-CANTON   CLOUDY    65  57  75 SW9       29.81R
WOOSTER        CLOUDY    62  59  90 SW8       29.83R
MANSFIELD      CLOUDY    63  60  90 S14       29.83R
YOUNGSTOWN     CLOUDY    65  58  78 S8        29.79F
$$

OHZ042-051>053-060>062-070>072-077>081-031300-
  SOUTHWEST OHIO

CITY           SKY/WX    TMP DP  RH WIND       PRES   REMARKS
CINC-COVINGTON CLOUDY    64  63  96 SE10G22   29.92F
CINC-LUNKEN    CLOUDY    63  62  97 SW6       29.90F
HAMILTON       CLOUDY    64  62  93 VRB5      29.90R
DAYTON         CLOUDY    65  63  93 S10       29.86S
WRIGHT-PAT AFB NOT AVBL
DAYTON GENERAL NOT AVBL
WILMINGTON     LGT RAIN  62  60  93 SE15G28   29.84F
$$

OHZ036-037-039>041-045>050-054>059-063>069-073>076-082>088-031300-
  CENTRAL AND SOUTHEAST OHIO

CITY           SKY/WX    TMP DP  RH WIND       PRES   REMARKS
COLUMBUS       CLOUDY    65  60  84 S17G26    29.84F
OSU AIRPORT    CLOUDY    65  60  84 S14G22    29.83F
BOLTON FIELD   PTSUNNY   64  61  88 S14G29    29.83F
RICKENBACK AFB LGT RAIN  63  60  91 S20G25    29.86F
NEWARK         LGT RAIN  65  60  84 SW8G16    29.86F
MARION         CLOUDY    63  60  90 S12       29.83R
LANCASTER      RAIN      66  59  78 W12G22    29.91F
ZANESVILLE     CLOUDY    67  57  70 S10       29.87F
NEW PHILLY     CLOUDY    64  59  83 SE7       29.82F
$$



USA.gov is the U.S. government's official web portal to all federal, state and local government web resources and services.